sat.trackr.live / text

‹ back to catalog

YAOGAN-30 05A

NORAD 43170 · 2018-011B

PAYLOAD ACTIVE UNKNOWN

§ Identity

Operator
Country
PRC
Launch date
2018-01-25
Launch site
XICLF
Launch vehicle
Mass (kg)
RCS (m²)

External: N2YO · Heavens-Above · Gunter

§ Orbital elements

Epoch: 2026-05-25T02:45:02.752416Z

Period
95.83 min
Inclination
34.9965°
Eccentricity
0.0002670
Mean motion
15.02616633 rev/d
Perigee alt
557.0 km
Apogee alt
560.7 km
Semi-major
6,937.0 km
B*
1.8835e-4
RAAN
291.5702°
Arg perigee
134.8212°
Mean anomaly
225.2713°
Rev number
45,467

§ Raw data

YAOGAN-30 05A1 43170U 18011B   26145.11461519  .00002531  00000+0  18835-3 0  99902 43170  34.9965 291.5702 0002670 134.8212 225.2713 15.02616633454676

JSON: /api/v1/satellites/43170 · /tle

For live sub-satellite position, see the globe view (requires WebGL).

§ Visibility from observer

Set your observer location to see the next 7 days of passes ≥ 10°. The values pass through the URL so the page stays shareable.

No JS? Fill the form by hand. The geolocation button needs JavaScript.